SCP
1 1 1 1 1 0 0 0 0 0 0 0 0 0 0 0 0 0 0 0 0 0 0 0 0 0 0 0 0 0 0 0 0 0 0 0 0 0 0 0 0 0 0
1 1 1 1 1 1 0 0 0 0 0 0 0 0 0 0 0 0 0 0 0 0 0 0 0 0 0 0 0 0 0 0 0 0 0 0 0 0 0 0 0 0 0
1 1 1 1 1 1 0 0 0 1 1 1 1 1 1 1 0 0 0 0 0 0 0 0 0 0 0 0 0 0 0 0 0 0 0 0 0 0 0 0 0 0 0
1 1 1 1 1 1 1 1 1 1 1 1 1 1 1 1 1 0 0 0 0 0 0 0 0 0 0 0 0 0 0 0 0 0 0 0 0 0 0 0 0 0 0
1 1 1 2 2 1 1 1 1 1 1 1 1 1 1 1 1 1 0 0 0 0 0 0 0 0 0 0 0 0 0 0 0 0 0 0 0 0 0 0 0 0 0
1 1 1 1 1 1 1 1 1 1 1 1 1 1 1 1 1 0 0 0 0 0 0 0 0 0 0 0 0 0 0 0 1 1 0 0 0 0 0 0 0 0 0
1 1 1 1 1 1 1 1 1 1 1 1 1 1 1 0 0 0 0 0 0 1 0 0 0 0 0 0 0 0 0 0 0 1 1 1 1 0 0 0 0 0 0
2 1 1 1 2 2 1 1 1 1 1 1 1 0 0 0 0 1 1 1 1 1 1 1 0 0 0 0 0 0 0 0 0 0 1 1 1 1 0 0 0 0 0
2 2 1 1 1 1 1 1 1 1 1 1 0 1 1 1 1 1 1 1 1 1 1 1 1 0 1 1 1 1 0 0 0 0 1 1 1 1 1 0 0 0 0
2 2 2 1 1 1 1 1 1 1 1 1 1 1 1 1 1 1 1 1 1 1 1 1 1 1 1 1 1 1 1 0 0 0 1 1 1 1 1 1 0 0 0
3 3 2 2 1 1 1 1 1 1 1 1 1 1 1 2 2 2 2 2 1 1 1 1 1 1 1 1 1 1 1 0 0 1 1 2 2 2 1 1 1 1 1
4 4 3 2 2 2 2 1 1 1 1 1 1 2 2 2 2 2 2 2 2 1 1 1 1 1 1 2 2 1 1 1 1 1 2 2 2 2 2 1 1 1 1
5 4 4 3 3 3 2 2 2 2 2 2 2 2 2 2 3 3 3 2 2 2 2 2 2 1 2 2 2 1 1 1 1 1 2 3 2 2 2 2 1 1 1
5 5 5 5 4 4 3 2 2 2 2 2 2 2 2 2 2 2 2 2 2 2 2 2 2 2 2 2 1 1 1 1 1 1 2 3 3 2 2 2 2 1 1
6 6 5 5 5 3 3 2 2 2 2 2 2 2 2 2 2 2 2 2 2 2 2 2 2 2 2 2 1 1 1 1 1 2 2 3 3 3 2 2 2 2 2
7 6 5 5 4 3 2 2 1 1 1 1 1 1 1 1 1 1 2 2 2 1 2 2 2 2 2 2 1 1 1 1 1 2 2 2 3 3 3 3 2 2 2
6 5 4 3 2 2 1 1 1 1 1 0 1 1 1 1 1 1 2 2 1 1 1 1 1 1 2 1 1 1 1 1 1 1 2 2 2 3 3 3 3 3 3
5 4 2 2 1 1 1 1 1 1 0 0 0 0 0 0 1 1 1 1 1 1 1 1 1 1 1 1 1 1 1 1 1 1 1 2 2 2 3 3 3 3 3
3 3 2 1 1 1 1 0 0 0 0 0 0 0 0 0 0 1 1 1 1 1 1 1 1 1 1 1 1 1 1 1 1 1 1 2 2 2 2 3 3 3 3
2 2 1 1 1 1 1 1 1 1 0 0 0 0 0 0 0 0 0 1 1 1 1 1 1 1 1 1 1 1 1 1 1 1 1 1 2 2 3 3 3 3 3
2 1 1 1 1 1 1 1 1 1 1 0 0 0 0 0 0 0 0 0 0 0 1 1 1 1 1 1 1 1 1 1 1 1 1 1 1 2 2 3 3 4 3
1 1 1 1 1 1 1 1 1 1 1 1 0 0 0 0 0 0 0 0 0 0 0 0 0 0 0 0 1 1 1 1 1 1 1 1 1 1 2 2 3 4 4
1 1 1 1 1 1 1 1 1 1 1 1 1 0 0 0 0 0 0 0 0 0 0 0 0 0 0 0 0 0 0 0 0 0 1 1 1 1 1 2 2 3 3
1 1 1 2 2 2 2 1 1 1 1 1 1 1 0 0 0 0 0 0 0 0 0 0 0 0 0 0 0 0 0 0 0 0 0 1 1 1 1 1 2 2 2
1 1 2 3 3 2 2 2 1 1 1 1 1 1 1 0 0 0 0 0 0 0 0 0 0 0 0 0 0 0 0 0 0 0 0 0 1 1 1 1 1 2 2
1 1 2 3 3 3 2 2 1 1 1 1 1 1 1 0 0 0 0 0 0 0 0 0 0 0 0 0 0 0 0 0 0 0 0 0 0 1 1 1 1 2 2
Wind_Speed
17 15 14 13 12 11 10 10 10 10 10 10 10 11 11 11 10 10 10 9 9 9 9 9 9 9 9 9 9 9 8 8 8 8 9 10 10 10 10 11 11 10 14
19 16 15 14 13 12 10 9 10 10 10 10 10 11 11 10 10 9 9 8 8 8 8 8 9 8 8 8 8 7 6 6 5 6 8 10 10 10 9 9 11 9 14
19 16 15 14 14 13 12 11 10 10 11 11 11 11 11 10 9 9 8 7 7 7 7 7 7 8 7 7 7 6 4 3 3 2 3 6 9 9 9 11 14 14 13
19 16 15 15 14 13 13 12 12 12 11 11 11 11 10 10 9 8 7 6 6 6 6 6 6 7 6 6 5 4 3 2 2 2 1 4 7 10 11 13 14 13 13
18 16 15 15 14 13 13 12 12 12 12 11 11 10 9 8 7 7 6 5 5 5 4 5 5 5 5 5 4 3 2 4 6 5 2 8 7 10 12 12 13 13 12
19 16 15 14 14 13 12 12 11 11 10 10 9 8 8 7 6 5 4 4 3 3 3 3 3 4 4 3 2 1 3 5 8 3 5 8 8 10 11 12 12 12 11
19 17 15 14 13 12 11 10 10 9 9 8 7 6 5 4 3 3 3 2 2 2 3 3 3 3 3 2 1 1 4 7 7 2 6 8 9 11 11 11 11 11 10
19 17 14 14 13 11 10 9 8 8 7 6 5 4 3 2 1 2 2 2 2 2 3 3 3 3 3 3 3 3 5 8 7 2 7 10 12 12 11 10 10 10 10
18 17 14 13 11 11 10 9 8 7 5 4 3 3 2 3 3 4 4 4 3 3 3 4 4 4 4 5 5 5 5 7 8 4 5 9 13 13 12 11 10 10 10
14 13 14 12 11 10 10 9 8 7 6 5 4 4 4 5 7 7 6 6 5 4 4 5 5 5 5 6 7 7 7 7 8 6 3 9 15 14 13 12 11 10 10
12 10 11 11 9 9 9 9 8 7 5 5 5 5 4 4 4 5 5 5 6 5 5 6 6 6 6 8 10 10 7 6 9 5 4 15 16 15 14 13 12 11 11
11 11 9 7 6 6 6 6 4 4 3 2 1 1 2 2 2 2 4 5 6 6 7 8 8 7 7 6 9 11 5 8 8 4 7 20 17 17 15 14 13 12 11
11 10 9 8 7 7 4 3 2 1 2 1 3 2 2 2 2 2 0 2 2 5 4 3 5 5 4 4 2 4 6 6 4 3 9 19 17 17 16 14 14 13 12
12 10 9 9 8 6 5 3 2 2 2 2 3 3 3 2 2 2 2 1 1 1 2 1 1 3 4 3 2 3 5 4 4 2 7 17 16 16 16 15 14 14 14
11 11 11 8 7 5 4 3 4 3 3 3 3 4 4 3 3 3 1 1 2 1 2 2 2 2 2 2 3 4 4 5 6 5 4 14 15 15 16 16 16 16 16
11 11 9 8 7 5 4 2 2 3 2 3 3 4 5 4 4 3 2 2 2 1 1 1 2 2 2 2 4 4 4 5 6 5 3 8 13 15 15 17 17 17 17
11 10 8 8 7 5 4 2 3 3 4 3 3 4 6 6 5 5 4 2 2 2 1 2 2 2 3 3 4 4 4 5 6 6 5 4 7 13 16 17 17 17 18
10 9 6 8 7 6 4 3 4 4 3 2 2 5 6 5 5 5 4 3 3 3 2 2 2 2 2 2 2 3 3 4 6 6 5 5 5 7 13 18 18 18 18
9 8 7 7 6 5 4 2 2 2 1 1 3 4 4 5 5 5 4 3 3 3 3 4 3 3 3 3 4 4 4 4 5 7 6 7 7 6 5 12 19 19 20
9 8 7 6 5 4 3 1 0 1 1 1 3 4 4 4 5 5 4 5 5 4 3 4 4 3 3 3 6 5 4 5 4 5 6 6 6 8 7 7 9 14 20
9 8 6 6 5 2 1 0 1 1 1 1 2 5 3 3 4 4 4 5 4 3 4 5 4 5 4 3 3 4 5 6 6 5 5 4 4 5 5 6 5 6 8
9 8 6 6 6 4 2 1 1 1 2 1 1 2 2 3 3 4 5 4 5 4 4 3 3 3 4 4 3 4 4 4 3 3 2 3 4 2 3 5 5 6 6
10 9 8 7 6 5 3 2 1 0 2 1 1 1 3 2 2 3 3 3 4 5 4 4 4 4 4 4 4 2 3 3 5 4 2 1 1 2 2 3 4 6 8
10 10 8 7 6 5 4 2 2 2 2 2 0 1 2 1 2 1 2 3 3 4 5 5 6 5 4 4 4 3 2 2 2 4 4 2 2 3 3 4 4 4 5
10 9 8 8 7 5 4 3 2 2 2 2 3 2 1 3 3 3 1 1 2 4 3 4 4 4 4 4 4 5 5 4 3 4 5 4 3 2 3 4 3 3 3
8 7 7 8 7 5 5 3 2 2 2 3 3 4 3 3 2 3 2 1 2 3 3 4 4 5 4 4 4 4 4 4 4 3 4 5 4 3 3 3 3 3 3
Wind_Direction
110 111 106 99 95 99 114 130 137 136 130 124 121 117 113 110 108 104 100 97 93 87 81 75 72 69 68 66 65 64 62 63 65 69 74 77 80 89 99 106 108 104 110
112 113 107 100 94 92 101 120 128 131 130 125 122 119 117 115 113 111 107 103 99 92 85 79 76 73 72 71 69 68 66 67 71 82 95 93 89 92 102 106 105 113 115
113 117 111 102 97 92 92 101 113 119 122 122 119 117 117 118 117 116 113 109 104 98 90 85 82 79 77 75 74 70 65 57 58 87 131 112 102 94 101 110 115 120 117
120 124 112 107 101 96 93 94 101 107 112 115 117 117 118 119 120 119 116 114 111 105 100 93 88 88 84 81 78 68 43 9 346 302 215 126 108 102 109 119 122 123 123
111 109 112 111 106 102 98 98 100 104 108 112 115 117 118 120 121 122 123 121 118 115 111 107 101 97 95 90 82 61 357 333 317 293 106 96 95 113 117 123 127 128 128
115 115 114 114 110 107 104 102 102 104 107 109 112 115 119 123 127 130 133 131 131 131 128 124 122 118 113 108 98 42 324 321 308 294 113 113 111 119 123 127 131 132 131
118 118 121 119 115 111 109 108 107 107 108 109 109 114 120 126 134 142 152 152 152 156 159 157 151 148 150 153 163 270 301 307 287 282 119 115 120 126 127 131 134 137 137
119 119 123 125 124 122 120 117 115 113 112 113 116 122 131 148 178 194 198 203 202 192 187 186 191 183 184 193 209 247 283 296 304 334 116 122 133 133 134 136 141 144 144
120 126 136 138 137 137 135 133 131 131 132 136 148 165 191 215 223 224 223 224 218 209 207 210 216 212 206 208 216 234 264 284 292 281 138 131 141 141 143 146 150 154 154
119 131 139 143 146 153 150 149 149 152 156 171 186 201 225 238 233 229 229 218 222 222 222 225 230 229 220 216 220 226 242 271 267 261 145 141 148 148 151 156 160 163 164
110 111 121 133 147 156 152 149 161 166 177 199 202 215 238 258 254 217 219 197 209 221 231 234 235 236 229 222 222 222 228 245 251 243 143 148 156 157 160 165 169 172 174
110 105 105 111 114 117 123 134 152 154 151 190 116 195 251 283 294 280 173 187 208 226 237 235 237 237 232 230 218 215 226 235 256 248 145 155 161 162 165 172 177 180 182
115 106 108 98 76 73 82 96 78 78 103 118 72 25 357 329 312 314 110 189 218 238 244 237 228 240 239 243 214 197 230 252 253 243 157 161 165 166 169 177 183 185 188
110 106 96 90 80 64 57 64 70 51 43 41 49 28 17 345 336 349 345 332 285 261 243 259 244 255 257 255 244 224 232 254 275 279 162 167 171 172 175 181 188 191 193
111 98 91 93 89 80 59 32 62 57 29 55 45 41 18 351 357 357 332 311 288 269 241 233 238 263 270 270 257 247 237 252 268 278 175 178 181 181 183 187 193 198 198
111 109 109 105 100 96 89 67 58 73 68 50 52 43 22 5 7 350 320 300 289 280 275 266 267 255 248 250 255 262 256 252 252 258 240 191 194 194 194 194 198 203 204
115 113 118 117 110 102 88 58 69 54 49 44 48 51 37 14 360 344 322 317 351 338 328 284 281 267 256 248 243 249 244 243 249 248 247 222 204 208 207 204 202 205 208
120 126 137 120 114 103 85 48 62 48 42 37 46 59 41 1 354 339 329 1 354 329 308 288 261 286 302 313 297 278 263 246 245 240 235 233 225 218 212 211 209 208 209
124 121 109 113 123 118 113 96 94 107 67 28 65 65 31 353 2 350 333 350 333 326 325 322 17 9 342 335 305 270 258 245 242 244 232 232 230 225 216 209 212 212 213
130 126 126 131 124 136 137 130 125 88 45 44 82 80 35 359 17 354 319 8 352 336 343 348 349 332 300 277 284 295 289 272 254 243 239 234 225 222 223 225 207 217 219
142 143 152 152 143 160 153 124 27 46 357 2 91 96 44 17 11 324 343 351 335 343 345 332 341 325 306 282 282 288 277 258 244 232 229 235 238 231 221 221 213 207 212
156 159 163 167 169 182 162 161 187 241 283 271 67 126 103 47 355 339 25 340 351 341 316 321 329 315 312 322 314 308 303 296 333 267 210 217 231 239 252 245 226 219 222
169 175 184 181 175 184 180 222 263 210 271 297 48 68 71 30 339 342 342 341 346 325 339 345 331 330 320 314 298 296 309 333 338 319 323 248 205 225 243 255 249 230 223
182 185 186 175 177 178 189 228 272 291 306 332 348 77 65 301 275 307 336 350 348 326 324 330 21 342 329 318 318 313 295 306 302 316 324 321 248 228 230 243 254 250 234
193 189 180 171 173 178 193 210 236 287 328 358 9 353 322 264 224 218 192 358 331 305 328 354 334 329 319 312 322 327 325 310 265 262 292 305 303 268 233 231 233 239 242
195 185 169 161 168 174 186 214 215 260 302 318 313 301 290 280 238 186 174 122 309 308 343 334 316 306 309 318 317 308 307 305 304 300 296 301 299 297 285 263 246 235 235